FENGYUN 1C DEB

Satellite information

Favourite Embed

Satellite Type and Status

DEBRISIN ORBIT

Key statistics

Satellite FENGYUN 1C DEB at a glance.

Uptime

9666

Days in orbit

Revolutions

≈ 14.0

Per day

Orbit

SSO

Sun Synchronous Orbit

Inclination

98.9

Latest

Satellite identification and parameters

Extended collection of information and parameters for FENGYUN 1C DEB.

Object identification

Identified? True

Debris? True

Object name: FENGYUN 1C DEB

International designator: 1999-025AAW

Object number (NORAD): 30335

Object ID (CCSDS): 30335

Country: PEOPLES REPUBLIC OF CHINA (PRC)

Current information (Y/N): Y

RCS size: SMALL

Orbital parameters

Period: 102.761 minutes

Inclination: 98.8999 deg

SMA: 7267.407 km

Apoapsis: 985.283 km

Periapsis: 793.261 km

RAAN: 291.453 deg

Eccentricy: 0.01321113

Argument of periapsis: 264.9132 deg

Mean anomaly: 160.844 deg

Mean motion: 14.01307783 rev/day

Mean motion (dot): 0.00000678 rev/day2

B* drag term: 0.00044452736 1/REarth

Two-line elements (TLE)

Creation date: Oct. 26, 2025, 2:54 a.m.

Reference frame: TEME

Reference center: EARTH

Epoch: Oct. 25, 2025, 11:52 p.m. UTC

TLE line 0: 0 FENGYUN 1C DEB

TLE line 1: 1 30335U 99025AAW 25298.99455227 .00000678 00000-0 44453-3 0 9992

TLE line 2: 2 30335 98.8999 291.4530 0132111 264.9132 160.8440 14.01307783959222

Live tracking on map

Real-time ground track for satellite FENGYUN 1C DEB.

In-orbit conjunctions

A list of the most updated potential collisions computed for object FENGYUN 1C DEB.

Target Orbit TCA Probability of collision Miss distance Type
SL-16 DEB LEO 2024-10-01 15:27:44 0.0001283309 358.0 (m) DEBRIS
CZ-2C DEB SSO 2024-08-05 01:51:48 0.0001264576 168.0 (m) DEBRIS

Associated space launch

Chinese polar orbiting meteorological satellite

FENGYUN 1C DEB was lifted into orbit during the mission ‘Long March 4B | Feng Yun 1C’, on board a Long March 4B space rocket.

The launch took place on May 10, 1999, 1:33 a.m. from Launch Complex 7.

For more information about the launch, click the button.

Launch to space Long March 4B | Feng Yun 1C
Long March 4B | Feng Yun 1C

Agency: N/A

Status: Launch Successful

Launch date: May 10, 1999, 1:33 a.m. UTC

Rocket: Long March 4B

Launch pad: Launch Complex 7

Location: Taiyuan Satellite Launch Center, People's Republic of China

...

Latest news about this satellite

There are no fresh news available about this satellite. Check back as we update our databases every day.


Newsletter sign-up

Weekly statistics, charts and insights to help you stay on top of the space industry.